(204336) = 2004 RD236

Discovered at Socorro on 2004-09-10 by LINEAR.

Orbit

Orbit type: Main Belt

Note: WebGL enabled browser required.

epoch2024-03-31.0
epoch JD2460400.5
perihelion date2022-08-07.30346
perihelion JD2459798.80346
argument of perihelion (°)137.39536
ascending node (°)206.66927
inclination (°)4.64036
eccentricity0.1002588
perihelion distance (AU)2.1186513
Tisserand w.r.t. Jupiter3.5
ΔV w.r.t. Earth (km/sec)9.2
semimajor axis (AU)2.3547341
mean anomaly (°)164.12266
mean daily motion (°/day)0.27276650
aphelion distance (AU)2.591
period (years)3.61
P-vector [x]0.96057607
P-vector [y]-0.27186231
P-vector [z]-0.05817638
Q-vector [x]0.27563576
Q-vector [y]0.90393329
Q-vector [z]0.32700083
absolute magnitude17.07
phase slope0.15
uncertainty0
referenceMPEC 2024-E73
observations used498
oppositions15
arc length (days)9116
first opposition used1999
last opposition used2024
residual rms (arc-secs)0.65
perturbers coarse indicatorM-v
perturbers precise indicator003Ek
first observation date used1999-03-21.0
last observation date used2024-03-05.0
computer nameMPCLINUX
JD of orbit computation2456877.915942
perihelion JD uncertainty (days)5.0531E-05
argument of perihelion uncertainty (°)3.3708E-05
ascending node uncertainty (°)3.0457E-05
inclination uncertainty (°)3.2448E-06
eccentricity uncertainty 3.1812E-08
perihelion distance uncertainty (AU)7.8413E-08
Minimum Orbit Intersection Distances (in AU)
for orbit epoch: 2460400.5, reference: E2024-E73
Mercury1.72961
Venus1.39832
Earth1.11393
Mars0.73969
Jupiter2.7357
Saturn6.59847
Uranus15.8553
Neptune27.5795

Observations

509 total observations over interval: 1999 03 21.266880 – 2024 03 05.177498
These data are available for download (format description).

Date (UT) J2000 RA J2000 Dec Magn Location Ref
1999 03 21.266880 11 16 52.046 +00 11 49.99 20.59 V 645 – Apache Point-Sloan Digital Sky Survey MPS 118461
1999 03 21.270352 11 16 51.855 +00 11 51.51 21.50   645 – Apache Point-Sloan Digital Sky Survey MPS 118461
1999 03 22.263600 11 16 00.427 +00 19 17.16 20.58 V 645 – Apache Point-Sloan Digital Sky Survey MPS 118461
1999 03 22.267072 11 16 00.240 +00 19 18.70 21.42   645 – Apache Point-Sloan Digital Sky Survey MPS 118461
2003 04 25.31006 14 09 26.22 -11 58 13.2 20.1 V 691 – Steward Observatory, Kitt Peak-Spacewatch MPS 118461
2003 04 25.33955 14 09 24.49 -11 58 00.8 20.0 V 691 – Steward Observatory, Kitt Peak-Spacewatch MPS 118461
2003 04 25.36674 14 09 22.91 -11 57 49.5 20.1 V 691 – Steward Observatory, Kitt Peak-Spacewatch MPS 118461
2003 05 27.17989 13 45 11.21 -08 49 13.4 21.9 V 291 – LPL/Spacewatch II MPS 118461
2003 05 27.20315 13 45 10.49 -08 49 08.6 22.0 V 291 – LPL/Spacewatch II MPS 118461
2003 05 27.22632 13 45 09.84 -08 49 03.2 21.2 V 291 – LPL/Spacewatch II MPS 118461
2004 09 10.29417 01 05 41.61 +10 18 12.2 19.8   704 – Lincoln Laboratory ETS, New Mexico MPS 113280
2004 09 10.30572 01 05 41.24 +10 18 08.1 20.2   704 – Lincoln Laboratory ETS, New Mexico MPS 113280
2004 09 10.31718 01 05 40.83 +10 18 05.1 19.8   704 – Lincoln Laboratory ETS, New Mexico MPS 113280
2004 09 10.32869 01 05 40.57 +10 18 02.2 20.4   704 – Lincoln Laboratory ETS, New Mexico MPS 113280
2004 09 15.33900 01 02 57.17 +09 50 53.0 19.5   704 – Lincoln Laboratory ETS, New Mexico MPS 113280
2004 09 15.35063 01 02 56.76 +09 50 50.1 20.4   704 – Lincoln Laboratory ETS, New Mexico MPS 113280
2004 09 15.36223 01 02 56.22 +09 50 45.5 20.1   704 – Lincoln Laboratory ETS, New Mexico MPS 113280
2004 09 15.37393 01 02 55.83 +09 50 40.4 19.7   704 – Lincoln Laboratory ETS, New Mexico MPS 113280
2004 09 15.38553 01 02 55.38 +09 50 36.1 19.9   704 – Lincoln Laboratory ETS, New Mexico MPS 113280
2004 09 17.28877 01 01 43.68 +09 38 54.1 20.4   704 – Lincoln Laboratory ETS, New Mexico MPS 114553
2004 09 17.30045 01 01 43.14 +09 38 49.4 20.3   704 – Lincoln Laboratory ETS, New Mexico MPS 114553
2004 09 17.31213 01 01 42.69 +09 38 44.7 20.6   704 – Lincoln Laboratory ETS, New Mexico MPS 114553
2004 09 17.32382 01 01 42.11 +09 38 40.7 20.1   704 – Lincoln Laboratory ETS, New Mexico MPS 114553
2004 09 22.28823 00 58 13.41 +09 04 55.1 19.7   704 – Lincoln Laboratory ETS, New Mexico MPS 114553
2004 09 22.31253 00 58 12.30 +09 04 44.7 19.8   704 – Lincoln Laboratory ETS, New Mexico MPS 114553
2004 09 22.32467 00 58 11.71 +09 04 38.4 20.0   704 – Lincoln Laboratory ETS, New Mexico MPS 114553
2004 09 22.33682 00 58 11.21 +09 04 34.3 20.4   704 – Lincoln Laboratory ETS, New Mexico MPS 114553
2004 09 24.28912 00 56 41.93 +08 50 08.0 18.6 C 704 – Lincoln Laboratory ETS, New Mexico MPS 291433
2004 09 24.30133 00 56 41.34 +08 50 03.5 19.0 C 704 – Lincoln Laboratory ETS, New Mexico MPS 291433
2004 09 24.31352 00 56 40.75 +08 49 57.9 18.9 C 704 – Lincoln Laboratory ETS, New Mexico MPS 291433
2004 09 24.42112 00 56 35.55 +08 49 08.3 19.5 V 291 – LPL/Spacewatch II MPS 114553
2004 09 24.45022 00 56 34.13 +08 48 55.2 19.6 V 291 – LPL/Spacewatch II MPS 114553
2004 09 24.47447 00 56 32.96 +08 48 43.9 19.4 V 291 – LPL/Spacewatch II MPS 114553
2004 10 05.22487 00 47 39.31 +07 21 16.5 18.9 R 699 – Lowell Observatory-LONEOS MPS 115833
2004 10 05.24513 00 47 38.18 +07 21 07.7   699 – Lowell Observatory-LONEOS MPS 115833
2004 10 05.26542 00 47 37.10 +07 20 55.8   699 – Lowell Observatory-LONEOS MPS 115833
2004 10 05.28571 00 47 36.16 +07 20 44.3   699 – Lowell Observatory-LONEOS MPS 115833
2004 10 07.28183 00 45 54.06 +07 03 41.0 19.3   704 – Lincoln Laboratory ETS, New Mexico MPS 115833
2004 10 07.29327 00 45 53.41 +07 03 35.6 18.9   704 – Lincoln Laboratory ETS, New Mexico MPS 115833
2004 10 07.30427 00 45 52.93 +07 03 30.5 20.2   704 – Lincoln Laboratory ETS, New Mexico MPS 115833
2004 10 07.31537 00 45 52.31 +07 03 24.6 19.7   704 – Lincoln Laboratory ETS, New Mexico MPS 115833
2004 10 07.32653 00 45 51.66 +07 03 18.0 19.6   704 – Lincoln Laboratory ETS, New Mexico MPS 115833
2004 10 08.17068 00 45 09.18 +06 56 03.5 19.2 V 691 – Steward Observatory, Kitt Peak-Spacewatch MPS 115833
2004 10 08.19875 00 45 07.74 +06 55 49.2 19.1 V 691 – Steward Observatory, Kitt Peak-Spacewatch MPS 115833
2004 10 08.22563 00 45 06.28 +06 55 35.4 19.2 V 691 – Steward Observatory, Kitt Peak-Spacewatch MPS 115833
2004 10 09.19941 00 44 17.06 +06 47 14.4 19.1   704 – Lincoln Laboratory ETS, New Mexico MPS 116721
2004 10 09.21012 00 44 16.56 +06 47 08.3 19.5   704 – Lincoln Laboratory ETS, New Mexico MPS 116721
2004 10 09.22083 00 44 15.96 +06 47 03.0 19.6   704 – Lincoln Laboratory ETS, New Mexico MPS 116721
2004 10 09.23155 00 44 15.39 +06 46 55.4 19.8   704 – Lincoln Laboratory ETS, New Mexico MPS 116721
2004 10 09.24226 00 44 14.83 +06 46 52.0 19.8   704 – Lincoln Laboratory ETS, New Mexico MPS 116721
2004 10 14.28814 00 40 07.16 +06 03 56.5 19.0   644 – Palomar Mountain/NEAT MPS 116721
2004 10 14.30928 00 40 06.10 +06 03 46.0 19.1   644 – Palomar Mountain/NEAT MPS 116721
2004 10 14.34688 00 40 04.22 +06 03 26.7 19.3   644 – Palomar Mountain/NEAT MPS 116721
2004 11 03.13988 00 28 22.16 +03 43 10.5 20.0 V 691 – Steward Observatory, Kitt Peak-Spacewatch MPS 118461
2004 11 03.15895 00 28 21.71 +03 43 04.5 19.9 V 691 – Steward Observatory, Kitt Peak-Spacewatch MPS 118461
2004 11 03.18210 00 28 21.20 +03 42 57.2 19.9 V 691 – Steward Observatory, Kitt Peak-Spacewatch MPS 118461
2006 02 02.28711 10 04 03.36 +04 54 07.4 20.6 V 691 – Steward Observatory, Kitt Peak-Spacewatch MPS 161797
2006 02 02.30451 10 04 02.43 +04 54 12.0 20.6 V 691 – Steward Observatory, Kitt Peak-Spacewatch MPS 161797
2006 02 02.32189 10 04 01.47 +04 54 17.1 20.2 V 691 – Steward Observatory, Kitt Peak-Spacewatch MPS 161797
2008 11 07.35701 05 21 34.77 +18 21 32.9 19.9 V G96 – Mt. Lemmon Survey MPS 263184
2008 11 07.36373 05 21 34.52 +18 21 31.5 19.6 V G96 – Mt. Lemmon Survey MPS 263184
2008 11 07.37049 05 21 34.27 +18 21 30.3 19.7 V G96 – Mt. Lemmon Survey MPS 263184
2008 11 07.37721 05 21 34.05 +18 21 28.9 19.7 V G96 – Mt. Lemmon Survey MPS 263184
2008 11 30.25643 05 01 40.90 +16 58 17.1 19.9   704 – Lincoln Laboratory ETS, New Mexico MPS 267497
2008 11 30.29413 05 01 38.36 +16 58 08.5 20.2   704 – Lincoln Laboratory ETS, New Mexico MPS 267497
2008 11 30.30675 05 01 37.60 +16 58 06.3 20.3   704 – Lincoln Laboratory ETS, New Mexico MPS 267497
2008 12 03.23403 04 58 28.53 +16 48 11.3 19.8 V 691 – Steward Observatory, Kitt Peak-Spacewatch MPS 267497
2008 12 03.25166 04 58 27.35 +16 48 08.0 19.8 V 691 – Steward Observatory, Kitt Peak-Spacewatch MPS 267497
2008 12 03.26928 04 58 26.17 +16 48 04.4 19.9 V 691 – Steward Observatory, Kitt Peak-Spacewatch MPS 267497
2008 12 30.22083 04 32 58.92 +15 46 19.6 19.8 V G96 – Mt. Lemmon Survey MPS 270119
2008 12 30.22983 04 32 58.56 +15 46 19.1 19.9 V G96 – Mt. Lemmon Survey MPS 270119
2008 12 30.24098 04 32 58.09 +15 46 18.8 20.0 V G96 – Mt. Lemmon Survey MPS 270119
2008 12 30.25403 04 32 57.51 +15 46 17.5 19.7 V G96 – Mt. Lemmon Survey MPS 270119
2010 04 09.29046 12 18 07.95 -04 11 40.7 20.6 V G96 – Mt. Lemmon Survey MPS 322068
2010 04 09.29839 12 18 07.52 -04 11 36.9 20.7 V G96 – Mt. Lemmon Survey MPS 322068
2010 04 09.30633 12 18 07.12 -04 11 32.8 20.4 V G96 – Mt. Lemmon Survey MPS 322068
2010 04 09.31428 12 18 06.69 -04 11 29.5 20.6 V G96 – Mt. Lemmon Survey MPS 322068
2011 08 25.24045 22 00 43.75 -04 23 55.9 18.9 R H15 – ISON-NM Observatory, Mayhill MPS 389074
2011 08 25.25354 22 00 43.04 -04 24 00.8 19.0 R H15 – ISON-NM Observatory, Mayhill MPS 389074
2011 08 25.26659 22 00 42.35 -04 24 05.7 18.9 R H15 – ISON-NM Observatory, Mayhill MPS 389074
2011 08 25.27976 22 00 41.63 -04 24 10.8 19.0 R H15 – ISON-NM Observatory, Mayhill MPS 389074
2011 08 29.49720 21 57 07.45 -04 52 58.4 18.9 V E12 – Siding Spring Survey MPS 390260
2011 08 29.50847 21 57 06.87 -04 53 04.0 19.3 V E12 – Siding Spring Survey MPS 390260
2011 08 29.51979 21 57 06.30 -04 53 08.5 19.0 V E12 – Siding Spring Survey MPS 390260
2011 08 29.53109 21 57 05.65 -04 53 13.0 19.4 V E12 – Siding Spring Survey MPS 390260
